Jendouba, Tunisia

11:46 AM CET on October 16, 2019 (GMT +0100)
Jendouba

Weather History for DTTN - August, 2019

Change the Weather History Date:

Thursday, August 1, 2019

  Actual Average Record
Temperature  
Mean Temperature 92 °F -  
Max Temperature 110 °F 97 °F - ()
Min Temperature 73 °F 66 °F - ()
Cooling Degree Days 26    
Growing Degree Days 42 (Base 50)    
Moisture  
Dew Point 53 °F    
Average Humidity 24    
Maximum Humidity 48    
Minimum Humidity 6    
Precipitation  
Precipitation 0.00 in 0.02 in - ()
Sea Level Pressure  
Sea Level Pressure 29.88 in    
Wind  
Wind Speed 5 mph ()    
Max Wind Speed 24 mph    
Max Gust Speed -    
Visibility 6.1 miles    
Events Thunderstorm    
T = Trace of Precipitation, MM = Missing Value Source: Averaged Metar Reports

Daily Weather History Graph

Daily Weather History Graph

Search for Another Location

Airport or City:

Astronomy

Aug. 01, 2019 Rise Set
Actual Time 5:30 AM CET 7:31 PM CET
Civil Twilight 5:02 AM CET 7:59 PM CET
Nautical Twilight 4:27 AM CET 8:34 PM CET
Astronomical Twilight 3:50 AM CET 9:11 PM CET
Moon 5:36 AM CET (8/1) 8:05 PM CET (8/1)
Length of Visible Light 14h 57m
Length of Day
14h 00m
New Moon, 0% of the Moon is Illuminated
Aug 1
New Moon
Aug 7
First Quarter
Aug 15
Full
Aug 23
Last Quarter
Aug 30
New

Hourly Weather History & Observations

Time (CET) Temp. Heat Index Dew Point Humidity Pressure Visibility Wind Dir Wind Speed Gust Speed Precip Events Conditions
1:00 AM 79 °F - 54 °F 32% 29.92 in 5 mi South 2.3 mph - -   Mostly Cloudy
1:00 AM 78.8 °F - 53.6 °F 42% 29.92 in 5.0 mi Variable 2.3 mph - N/A   Scattered Clouds
7:00 AM 80 °F - 58 °F 37% 29.95 in 6 mi South 5.8 mph - -  
7:00 AM 80.6 °F 81.1 °F 59.0 °F 48% 29.95 in - South 5.8 mph - N/A   Clear
8:00 AM 86.0 °F 84.5 °F 55.4 °F 35% 29.95 in 6.2 mi NE 5.8 mph - N/A   Partly Cloudy
9:00 AM 87.8 °F 86.5 °F 57.2 °F 35% 29.95 in 6.2 mi East 3.5 mph - N/A   Scattered Clouds
10:00 AM 92 °F - 56 °F 20% 29.94 in 6 mi ENE 2.3 mph - -   Partly Cloudy
10:00 AM 91.4 °F 89.9 °F 57.2 °F 31% 29.95 in 6.2 mi Variable 2.3 mph - N/A   Scattered Clouds
11:00 AM 96.8 °F 95.1 °F 55.4 °F 25% 29.95 in 6.2 mi Variable 3.5 mph - N/A   Scattered Clouds
12:00 PM 100.4 °F 98.8 °F 55.4 °F 22% 29.89 in 6.2 mi NNW 4.6 mph - N/A   Scattered Clouds
3:00 PM 109.4 °F - 48.2 °F 13% 29.83 in 6.2 mi East 4.6 mph - N/A   Scattered Clouds
4:00 PM 110 °F - 46 °F 6% 29.82 in 9 mi NNE 9.2 mph - -   Scattered Clouds
4:00 PM 109.4 °F - 46.4 °F 12% 29.80 in 6.2 mi NNE 9.2 mph - N/A   Partly Cloudy
5:00 PM 109.4 °F - 46.4 °F 12% 29.77 in 6.2 mi NE 13.8 mph - N/A   Partly Cloudy
6:00 PM 107.6 °F - 39.2 °F 10% 29.83 in 6.2 mi ENE 11.5 mph - N/A   Partly Cloudy
7:00 PM 98 °F - 54 °F 15% 29.87 in 7 mi SSW 24.2 mph - - Thunderstorm Thunderstorm
7:00 PM 98.6 °F 96.4 °F 53.6 °F 22% 29.86 in 6.2 mi SSW 24.2 mph - N/A Thunderstorm Thunderstorm
8:00 PM 96.8 °F - 50.0 °F 20% 29.86 in 6.2 mi West 9.2 mph - N/A Thunderstorm Thunderstorm
9:00 PM 95.0 °F - 51.8 °F 23% 29.83 in 6.2 mi SSE 4.6 mph - N/A   Scattered Clouds
10:00 PM 93 °F - 54 °F 18% 29.85 in 5 mi North 4.6 mph - -   Partly Cloudy
10:00 PM 93.2 °F 90.8 °F 53.6 °F 26% 29.83 in 5.0 mi North 4.6 mph - N/A   Scattered Clouds
11:00 PM 87.8 °F 86.1 °F 55.4 °F 33% 29.92 in 5.0 mi Variable 2.3 mph - N/A   Scattered Clouds